Pagina principală
METAR-TAF:

METAR-TAF

Aeroporturi :

Groote Eylandt, Australia

Latitudine: 13-58-30S, longitudine: 136-27-36E, elevație: 16 m

Observații meteo curente

Raportul a fost făcut în urmă cu 1 oră și 17 de minute, la 23:00 UTC
Vânt 11 kt de la Est/Sud-est
Temperatură 26°C
Umiditate 42%
Presiune 1015 hPa
Vizibilitate de 10 km sau mai mult

METAR: YGTE 222300Z AUTO 11011KT 9999 // NCD 26/12 Q1015

Ora: 09:47 (00:17 UTC)


TAF: lipsă

Observații și prognoze meteo pentru peste 4.000 de aeroporturi (rapoarte METAR și TAF).

Stațiile disponibile sunt reprezentate pe hartă prin puncte galbene și roșii.

Țineți indicatorul mouse-ului pe punctul dorit pentru a vedea denumirea stației.

Apoi, faceți clic pentru a vedea observațiile și prognozele meteorologice.

Pentru a schimba harta: Pentru mărire, faceți clic pe butoanele verzi cu cruce neagră; pentru micșorare, pe butonul verde cu o liniuță; pentru hărți învecinate, pe săgețile verzi.


METAR-TAF: